OK1FET-15 Weather Reports


time (UTC)temp
C
wind
direction
speed
KPH
gust
KPH
rain 1hr
cm
rain 24hr
cm
rain mn
cm
humidity
%
barometer
mb
20260502181828 16 135 0.0 0.0 0.00 0.00 0.00 27 1018.3
20260502181321 16 132 0.0 0.0 0.00 0.00 0.00 26 1018.2
20260502180813 16 105 0.0 0.0 0.00 0.00 0.00 26 1018.3
20260502180306 16 103 0.0 0.0 0.00 0.00 0.00 26 1018.2
20260502170135 19 156 0.0 0.0 0.00 0.00 0.00 23 1018.5
20260502164104 20 170 0.0 0.0 0.00 0.00 0.00 20 1018.7
20260502163556 20 162 0.0 0.0 0.00 0.00 0.00 20 1018.7
20260502163048 21 109 0.0 0.0 0.00 0.00 0.00 20 1018.8
20260502162540 21 87 0.0 0.0 0.00 0.00 0.00 19 1018.8
20260502162032 21 7 0.0 0.0 0.00 0.00 0.00 19 1018.9
20260502161524 21 7 0.0 0.0 0.00 0.00 0.00 18 1018.9
20260502161017 21 132 0.0 0.0 0.00 0.00 0.00 18 1019.0
20260502160509 22 135 0.0 1.6 0.00 0.00 0.00 17 1019.0
20260502151853 30 88 1.6 3.2 0.00 0.00 0.00 13 1019.6
20260502151345 30 102 1.6 3.2 0.00 0.00 0.00 13 1019.6
20260502150836 30 67 1.6 3.2 0.00 0.00 0.00 12 1019.7
20260502150327 30 30 1.6 3.2 0.00 0.00 0.00 13 1019.9
20260502130458 32 75 0.0 3.2 0.00 0.00 0.00 14 1021.2
20260502123404 32 98 1.6 4.8 0.00 0.00 0.00 15 1021.8
20260502122855 32 90 1.6 4.8 0.00 0.00 0.00 15 1021.8
20260502122346 31 168 1.6 3.2 0.00 0.00 0.00 15 1021.9
20260502121837 31 131 1.6 3.2 0.00 0.00 0.00 15 1022.0
20260502121328 31 112 0.0 3.2 0.00 0.00 0.00 16 1022.0
20260502120819 31 157 1.6 3.2 0.00 0.00 0.00 16 1022.1
20260502120310 30 152 3.2 11.3 0.00 0.00 0.00 15 1022.2
20260502115801 31 136 3.2 6.4 0.00 0.00 0.00 16 1022.2
20260502115252 31 106 1.6 4.8 0.00 0.00 0.00 16 1022.2
20260502114744 31 129 1.6 4.8 0.00 0.00 0.00 18 1022.4
20260502114235 31 37 1.6 3.2 0.00 0.00 0.00 18 1022.4
20260502113726 31 93 1.6 6.4 0.00 0.00 0.00 17 1022.4
20260502113217 30 80 1.6 3.2 0.00 0.00 0.00 18 1022.5
20260502112708 30 170 0.0 1.6 0.00 0.00 0.00 19 1022.6
20260502112159 30 94 1.6 4.8 0.00 0.00 0.00 18 1022.6
20260502111651 30 101 1.6 6.4 0.00 0.00 0.00 18 1022.7
20260502111142 30 172 1.6 8.0 0.00 0.00 0.00 19 1022.8
20260502110633 30 151 0.0 3.2 0.00 0.00 0.00 19 1022.9
20260502110124 30 166 1.6 8.0 0.00 0.00 0.00 20 1022.9
20260502105615 29 84 1.6 4.8 0.00 0.00 0.00 21 1023.0
20260502105107 29 77 1.6 6.4 0.00 0.00 0.00 21 1023.1
20260502104558 30 83 1.6 4.8 0.00 0.00 0.00 21 1023.1
20260502104049 29 123 1.6 3.2 0.00 0.00 0.00 21 1023.3
20260502103541 28 68 1.6 6.4 0.00 0.00 0.00 22 1023.3
20260502103032 28 124 1.6 4.8 0.00 0.00 0.00 22 1023.3
20260502102523 28 104 1.6 4.8 0.00 0.00 0.00 22 1023.4
20260502102015 28 150 0.0 0.0 0.00 0.00 0.00 23 1023.5
20260502101506 27 122 1.6 4.8 0.00 0.00 0.00 23 1023.5
20260502100958 28 63 1.6 4.8 0.00 0.00 0.00 23 1023.6
20260502100449 28 130 1.6 3.2 0.00 0.00 0.00 23 1023.8
20260502091325 26 181 1.6 4.8 0.00 0.00 0.00 27 1024.2
20260502090817 26 143 1.6 3.2 0.00 0.00 0.00 27 1024.2
20260502090309 26 107 1.6 6.4 0.00 0.00 0.00 27 1024.3
20260502071523 17 144 0.0 4.8 0.00 0.00 0.00 48 1025.0
20260502071015 16 91 0.0 0.0 0.00 0.00 0.00 48 1025.0
20260502070508 16 132 1.6 6.4 0.00 0.00 0.00 50 1025.1
20260502070000 16 135 0.0 3.2 0.00 0.00 0.00 52 1025.1
20260502065453 15 92 0.0 3.2 0.00 0.00 0.00 54 1025.0
20260502064946 15 121 3.2 8.0 0.00 0.00 0.00 55 1025.1
20260502064438 15 111 1.6 4.8 0.00 0.00 0.00 57 1025.0
20260502063931 14 125 0.0 3.2 0.00 0.00 0.00 59 1025.0
20260502063423 14 96 0.0 3.2 0.00 0.00 0.00 64 1025.0
20260502062916 13 101 0.0 0.0 0.00 0.00 0.00 68 1025.0
20260502062409 12 52 0.0 3.2 0.00 0.00 0.00 71 1025.1
20260502061844 12 119 0.0 0.0 0.00 0.00 0.00 73 1025.1
20260502061319 11 159 0.0 0.0 0.00 0.00 0.00 76 1025.0
20260502060755 11 142 0.0 0.0 0.00 0.00 0.00 77 1025.0
20260502060230 11 58 0.0 0.0 0.00 0.00 0.00 79 1025.1
20260502055705 10 356 0.0 0.0 0.00 0.00 0.00 80 1025.1
20260501182418 12 225 0.0 0.0 0.00 0.00 0.00 39 1025.8